Regional Weather Roundup
Issued by NWS Midland/Odessa, TX

Home | Current Version | Previous Version | Text Only | Print | Product List | Glossary On
Versions: 1 2 3 4 5 6 7 8 9 10 11 12 13 14 15 16 17 18 19 20 21 22 23 24 25 26 27 28 29 30 31 32 33 34 35 36 37 38 39 40 41 42 43 44 45 46 47 48 49 50
000
ASUS44 KMAF 261110
RWRMAF
MIDLAND AREA WEATHER ROUNDUP
NATIONAL WEATHER SERVICE MIDLAND TX
600 AM CDT THU APR 26 2018

...IN SOUTHWEST TEXAS AND SOUTHEAST NEW MEXICO...

CITY           SKY/WX    TMP DP  RH WIND       PRES   REMARKS
ALPINE         CLEAR     43  40  88 SW7       30.15S WCI  39
ANDREWS        FAIR      45  40  85 W8        30.07S
ARTESIA        CLEAR     41  32  70 S7        30.05F WCI  36
BIG SPRING     CLEAR     40  37  87 SE6       30.09F WCI  36
CARLSBAD       CLEAR     48  37  65 S9        30.04F
DRYDEN           N/A     46  40  79 W3        30.06F
FORT STOCKTON  CLEAR     44  38  79 S6        30.05F
GUAD PASS      CLEAR     49  35  58 W6        30.13F
HOBBS          CLEAR     45  39  81 W8        30.07S
LAMESA         PTSUNNY   43  37  81 W7        30.06F WCI  39
MARFA          CLOUDY    34  31  88 MISG      30.14S
MIDLAND AIRPK    N/A     45  39  79 CALM      30.07F
MIDLAND INTL   CLEAR     44  38  79 SW3       30.06F
ODESSA         CLEAR     45  40  82 SW3       30.07F
PECOS          CLEAR     39  34  81 NW3       30.07F
PRESIDIO       FAIR      53  42  65 NE3       30.10F
SEMINOLE       CLEAR     42  38  84 W8        30.08R WCI  37
SNYDER         CLEAR     41  40  97 SW7       30.06F WCI  36
WINK           CLEAR     39  34  82 N6        30.06S WCI  35
$$
...OTHER STATIONS IN TEXAS...

CITY           SKY/WX    TMP DP  RH WIND       PRES   REMARKS
ABILENE        CLEAR     41  41 100 CALM      30.05F
AMARILLO       CLOUDY    39  31  72 S12       30.00F WCI  32
AUSTIN         PTCLDY    48  47  96 CALM      30.06S
BROWNSVILLE    CLOUDY    67  65  93 NW7       29.97S
CORPUS CHRISTI CLOUDY    61  58  90 N14       30.02R
DALLAS FTW     CLEAR     47  44  90 W8        30.01S
DEL RIO        CLOUDY    60  49  66 CALM      30.07S
EL PASO        PTCLDY    55  39  54 SW3       30.06F
HOUSTON INT    FAIR      55  48  77 N9        30.02F
LUBBOCK        CLEAR     40  33  76 W8        30.03F WCI  34
SAN ANGELO     CLEAR     37  36  96 W6        30.08S WCI  32
SAN ANTONIO    CLOUDY    56  47  71 N6        30.06F
WACO           CLEAR     39  39 100 CALM      30.06S FOG
WICHITA FALLS  PTCLDY    35  35 100 CALM      30.01S FOG
$$
...OTHER LOCATIONS IN NEW MEXICO...

CITY           SKY/WX    TMP DP  RH WIND       PRES   REMARKS
ALAMOGORDO     CLEAR     46  32  57 W5        30.08F
ALBUQUERQUE    CLEAR     51  31  46 W3        30.07S
CANNON AFB     CLEAR     41  35  80 SW8       30.03F WCI  35
CLOVIS         CLEAR     38  28  67 SW7       30.03F WCI  33
HOLLOMAN AFB   CLEAR     50  37  59 SE6       30.10S
ROSWELL        CLEAR     43  33  68 SE6       30.03F WCI  39
RUIDOSO        CLEAR     46  32  57 W7        30.16S
SANTA FE       CLEAR     38  29  70 N5        30.08F WCI  34
TRUTH OR CONSE CLEAR     55  29  36 W3        30.06S
TUCUMCARI      CLEAR     47  34  60 SW10      29.97F
$$




USA.gov is the U.S. government's official web portal to all federal, state and local government web resources and services.